Year,Month,Day,Hour,Minute,Value (Times are PST for temperature in C)
2019,07,08,00,00,12.40
2019,07,08,00,01,12.40
2019,07,08,00,02,12.40
2019,07,08,00,03,12.40
2019,07,08,00,04,12.40
2019,07,08,00,05,12.40
2019,07,08,00,06,12.40
2019,07,08,00,07,12.40
2019,07,08,00,08,12.40
2019,07,08,00,09,12.40
2019,07,08,00,10,12.40
2019,07,08,00,11,12.30
2019,07,08,00,12,12.30
2019,07,08,00,13,12.30
2019,07,08,00,14,12.30
2019,07,08,00,15,12.30
2019,07,08,00,16,12.30
2019,07,08,00,17,12.30
2019,07,08,00,18,12.30
2019,07,08,00,19,12.30
2019,07,08,00,20,12.30
2019,07,08,00,21,12.30
2019,07,08,00,22,12.30
2019,07,08,00,23,12.40
2019,07,08,00,24,12.40
2019,07,08,00,25,12.40
2019,07,08,00,26,12.40
2019,07,08,00,27,12.40
2019,07,08,00,28,12.40
2019,07,08,00,29,12.40
2019,07,08,00,30,12.40
2019,07,08,00,31,12.40
2019,07,08,00,32,12.40
2019,07,08,00,33,12.40
2019,07,08,00,34,12.40
2019,07,08,00,35,12.40
2019,07,08,00,36,12.40
2019,07,08,00,37,12.40
2019,07,08,00,38,12.40
2019,07,08,00,39,12.40
2019,07,08,00,40,12.40
2019,07,08,00,41,12.30
2019,07,08,00,42,12.40
2019,07,08,00,43,12.40
2019,07,08,00,44,12.40
2019,07,08,00,45,12.40
2019,07,08,00,46,12.40
2019,07,08,00,47,12.40
2019,07,08,00,48,12.40
2019,07,08,00,49,12.40
2019,07,08,00,50,12.40
2019,07,08,00,51,12.40
2019,07,08,00,52,12.40
2019,07,08,00,53,12.40
2019,07,08,00,54,12.40
2019,07,08,00,55,12.40
2019,07,08,00,56,12.30
2019,07,08,00,57,12.30
2019,07,08,00,58,12.30
2019,07,08,00,59,12.30
2019,07,08,01,00,12.30
2019,07,08,01,01,12.30
2019,07,08,01,02,12.30
2019,07,08,01,03,12.30
2019,07,08,01,04,12.30
2019,07,08,01,05,12.30
2019,07,08,01,06,12.30
2019,07,08,01,07,12.30
2019,07,08,01,08,12.30
2019,07,08,01,09,12.30
2019,07,08,01,10,12.30
2019,07,08,01,11,12.30
2019,07,08,01,12,12.30
2019,07,08,01,13,12.30
2019,07,08,01,14,12.30
2019,07,08,01,15,12.20
2019,07,08,01,16,12.20
2019,07,08,01,17,12.20
2019,07,08,01,18,12.20
2019,07,08,01,19,12.20
2019,07,08,01,20,12.20
2019,07,08,01,21,12.20
2019,07,08,01,22,12.10
2019,07,08,01,23,12.10
2019,07,08,01,24,12.10
2019,07,08,01,25,12.10
2019,07,08,01,26,12.00
2019,07,08,01,27,12.00
2019,07,08,01,28,12.00
2019,07,08,01,29,12.00
2019,07,08,01,30,12.00
2019,07,08,01,31,11.90
2019,07,08,01,32,11.90
2019,07,08,01,33,11.90
2019,07,08,01,34,11.90
2019,07,08,01,35,11.90
2019,07,08,01,36,11.80
2019,07,08,01,37,11.80
2019,07,08,01,38,11.80
2019,07,08,01,39,11.80
2019,07,08,01,40,11.80
2019,07,08,01,41,11.80
2019,07,08,01,42,11.80
2019,07,08,01,43,11.80
2019,07,08,01,44,11.80
2019,07,08,01,45,11.80
2019,07,08,01,46,11.70
2019,07,08,01,47,11.70
2019,07,08,01,48,11.70
2019,07,08,01,49,11.70
2019,07,08,01,50,11.60
2019,07,08,01,51,11.60
2019,07,08,01,52,11.60
2019,07,08,01,53,11.60
2019,07,08,01,54,11.60
2019,07,08,01,55,11.60
2019,07,08,01,56,11.60
2019,07,08,01,57,11.60
2019,07,08,01,58,11.60
2019,07,08,01,59,11.60
2019,07,08,02,00,11.50
2019,07,08,02,01,11.40
2019,07,08,02,02,11.40
2019,07,08,02,03,11.40
2019,07,08,02,04,11.40
2019,07,08,02,05,11.40
2019,07,08,02,06,11.40
2019,07,08,02,07,11.40
2019,07,08,02,08,11.40
2019,07,08,02,09,11.40
2019,07,08,02,10,11.40
2019,07,08,02,11,11.40
2019,07,08,02,12,11.40
2019,07,08,02,13,11.40
2019,07,08,02,14,11.40
2019,07,08,02,15,11.40
2019,07,08,02,16,11.40
2019,07,08,02,17,11.40
2019,07,08,02,18,11.40
2019,07,08,02,19,11.40
2019,07,08,02,20,11.40
2019,07,08,02,21,11.40
2019,07,08,02,22,11.40
2019,07,08,02,23,11.40
2019,07,08,02,24,11.40
2019,07,08,02,25,11.30
2019,07,08,02,26,11.30
2019,07,08,02,27,11.30
2019,07,08,02,28,11.30
2019,07,08,02,29,11.30
2019,07,08,02,30,11.30
2019,07,08,02,31,11.20
2019,07,08,02,32,11.20
2019,07,08,02,33,11.20
2019,07,08,02,34,11.20
2019,07,08,02,35,11.10
2019,07,08,02,36,11.10
2019,07,08,02,37,11.10
2019,07,08,02,38,11.10
2019,07,08,02,39,11.10
2019,07,08,02,40,11.10
2019,07,08,02,41,11.10
2019,07,08,02,42,11.10
2019,07,08,02,43,11.10
2019,07,08,02,44,11.10
2019,07,08,02,45,11.10
2019,07,08,02,46,11.10
2019,07,08,02,47,11.10
2019,07,08,02,48,11.10
2019,07,08,02,49,11.10
2019,07,08,02,50,11.20
2019,07,08,02,51,11.20
2019,07,08,02,52,11.30
2019,07,08,02,53,11.30
2019,07,08,02,54,11.30
2019,07,08,02,55,11.30
2019,07,08,02,56,11.40
2019,07,08,02,57,11.40
2019,07,08,02,58,11.30
2019,07,08,02,59,11.30
2019,07,08,03,00,11.30
2019,07,08,03,01,11.30
2019,07,08,03,02,11.30
2019,07,08,03,03,11.30
2019,07,08,03,04,11.30
2019,07,08,03,05,11.30
2019,07,08,03,06,11.30
2019,07,08,03,07,11.30
2019,07,08,03,08,11.30
2019,07,08,03,09,11.30
2019,07,08,03,10,11.30
2019,07,08,03,11,11.20
2019,07,08,03,12,11.20
2019,07,08,03,13,11.20
2019,07,08,03,14,11.20
2019,07,08,03,15,11.20
2019,07,08,03,16,11.20
2019,07,08,03,17,11.10
2019,07,08,03,18,11.10
2019,07,08,03,19,11.20
2019,07,08,03,20,11.20
2019,07,08,03,21,11.20
2019,07,08,03,22,11.30
2019,07,08,03,23,11.30
2019,07,08,03,24,11.30
2019,07,08,03,25,11.30
2019,07,08,03,26,11.40
2019,07,08,03,27,11.40
2019,07,08,03,28,11.40
2019,07,08,03,29,11.40
2019,07,08,03,30,11.40
2019,07,08,03,31,11.40
2019,07,08,03,32,11.30
2019,07,08,03,33,11.40
2019,07,08,03,34,11.40
2019,07,08,03,35,11.40
2019,07,08,03,36,11.40
2019,07,08,03,37,11.40
2019,07,08,03,38,11.40
2019,07,08,03,39,11.40
2019,07,08,03,40,11.40
2019,07,08,03,41,11.30
2019,07,08,03,42,11.40
2019,07,08,03,43,11.40
2019,07,08,03,44,11.40
2019,07,08,03,45,11.40
2019,07,08,03,46,11.40
2019,07,08,03,47,11.40
2019,07,08,03,48,11.40
2019,07,08,03,49,11.40
2019,07,08,03,50,11.40
2019,07,08,03,51,11.40
2019,07,08,03,52,11.40
2019,07,08,03,53,11.40
2019,07,08,03,54,11.40
2019,07,08,03,55,11.40
2019,07,08,03,56,11.40
2019,07,08,03,57,11.40
2019,07,08,03,58,11.40
2019,07,08,03,59,11.40
2019,07,08,04,00,11.40
2019,07,08,04,01,11.40
2019,07,08,04,02,11.40
2019,07,08,04,03,11.40
2019,07,08,04,04,11.40
2019,07,08,04,05,11.40
2019,07,08,04,06,11.40
2019,07,08,04,07,11.40
2019,07,08,04,08,11.40
2019,07,08,04,09,11.50
2019,07,08,04,10,11.60
2019,07,08,04,11,11.60
2019,07,08,04,12,11.60
2019,07,08,04,13,11.60
2019,07,08,04,14,11.60
2019,07,08,04,15,11.60
2019,07,08,04,16,11.60
2019,07,08,04,17,11.60
2019,07,08,04,18,11.60
2019,07,08,04,19,11.60
2019,07,08,04,20,11.60
2019,07,08,04,21,11.60
2019,07,08,04,22,11.60
2019,07,08,04,23,11.60
2019,07,08,04,24,11.60
2019,07,08,04,25,11.60
2019,07,08,04,26,11.60
2019,07,08,04,27,11.60
2019,07,08,04,28,11.60
2019,07,08,04,29,11.60
2019,07,08,04,30,11.60
2019,07,08,04,31,11.60
2019,07,08,04,32,11.60
2019,07,08,04,33,11.60
2019,07,08,04,34,11.60
2019,07,08,04,35,11.60
2019,07,08,04,36,11.60
2019,07,08,04,37,11.60
2019,07,08,04,38,11.60
2019,07,08,04,39,11.60
2019,07,08,04,40,11.60
2019,07,08,04,41,11.60
2019,07,08,04,42,11.60
2019,07,08,04,43,11.60
2019,07,08,04,44,11.60
2019,07,08,04,45,11.60
2019,07,08,04,46,11.70
2019,07,08,04,47,11.70
2019,07,08,04,48,11.70
2019,07,08,04,49,11.70
2019,07,08,04,50,11.70
2019,07,08,04,51,11.70
2019,07,08,04,52,11.80
2019,07,08,04,53,11.80
2019,07,08,04,54,11.80
2019,07,08,04,55,11.80
2019,07,08,04,56,11.80
2019,07,08,04,57,11.80
2019,07,08,04,58,11.80
2019,07,08,04,59,11.90
2019,07,08,05,00,11.90
2019,07,08,05,01,11.90
2019,07,08,05,02,11.90
2019,07,08,05,03,12.00
2019,07,08,05,04,12.00
2019,07,08,05,05,12.00
2019,07,08,05,06,12.00
2019,07,08,05,07,12.00
2019,07,08,05,08,12.00
2019,07,08,05,09,12.00
2019,07,08,05,10,12.00
2019,07,08,05,11,12.00
2019,07,08,05,12,12.00
2019,07,08,05,13,12.00
2019,07,08,05,14,12.00
2019,07,08,05,15,12.00
2019,07,08,05,16,12.00
2019,07,08,05,17,12.00
2019,07,08,05,18,12.00
2019,07,08,05,19,12.00
2019,07,08,05,20,12.00
2019,07,08,05,21,12.00
2019,07,08,05,22,12.00
2019,07,08,05,23,12.00
2019,07,08,05,24,12.10
2019,07,08,05,25,12.10
2019,07,08,05,26,12.10
2019,07,08,05,27,12.10
2019,07,08,05,28,12.10
2019,07,08,05,29,12.10
2019,07,08,05,30,12.10
2019,07,08,05,31,12.10
2019,07,08,05,32,12.10
2019,07,08,05,33,12.10
2019,07,08,05,34,12.10
2019,07,08,05,35,12.10
2019,07,08,05,36,12.10
2019,07,08,05,37,12.10
2019,07,08,05,38,12.10
2019,07,08,05,39,12.10
2019,07,08,05,40,12.10
2019,07,08,05,41,12.00
2019,07,08,05,42,12.00
2019,07,08,05,43,12.00
2019,07,08,05,44,12.00
2019,07,08,05,45,12.00
2019,07,08,05,46,12.00
2019,07,08,05,47,12.00
2019,07,08,05,48,12.00
2019,07,08,05,49,12.10
2019,07,08,05,50,12.10
2019,07,08,05,51,12.10
2019,07,08,05,52,12.10
2019,07,08,05,53,12.10
2019,07,08,05,54,12.10
2019,07,08,05,55,12.10
2019,07,08,05,56,12.10
2019,07,08,05,57,12.10
2019,07,08,05,58,12.20
2019,07,08,05,59,12.20
2019,07,08,06,00,12.20
2019,07,08,06,01,12.20
2019,07,08,06,02,12.20
2019,07,08,06,03,12.20
2019,07,08,06,04,12.20
2019,07,08,06,05,12.20
2019,07,08,06,06,12.20
2019,07,08,06,07,12.20
2019,07,08,06,08,12.20
2019,07,08,06,09,12.20
2019,07,08,06,10,12.20
2019,07,08,06,11,12.30
2019,07,08,06,12,12.30
2019,07,08,06,13,12.20
2019,07,08,06,14,12.20
2019,07,08,06,15,12.20
2019,07,08,06,16,12.20
2019,07,08,06,17,12.10
2019,07,08,06,18,12.10
2019,07,08,06,19,12.10
2019,07,08,06,20,12.10
2019,07,08,06,21,12.10
2019,07,08,06,22,12.10
2019,07,08,06,23,12.10
2019,07,08,06,24,12.10
2019,07,08,06,25,12.20
2019,07,08,06,26,12.20
2019,07,08,06,27,12.20
2019,07,08,06,28,12.20
2019,07,08,06,29,12.20
2019,07,08,06,30,12.20
2019,07,08,06,31,12.30
2019,07,08,06,32,12.30
2019,07,08,06,33,12.30
2019,07,08,06,34,12.30
2019,07,08,06,35,12.30
2019,07,08,06,36,12.30
2019,07,08,06,37,12.30
2019,07,08,06,38,12.30
2019,07,08,06,39,12.30
2019,07,08,06,40,12.30
2019,07,08,06,41,12.30
2019,07,08,06,42,12.30
2019,07,08,06,43,12.20
2019,07,08,06,44,12.20
2019,07,08,06,45,12.20
2019,07,08,06,46,12.20
2019,07,08,06,47,12.20
2019,07,08,06,48,12.20
2019,07,08,06,49,12.20
2019,07,08,06,50,12.20
2019,07,08,06,51,12.20
2019,07,08,06,52,12.20
2019,07,08,06,53,12.20
2019,07,08,06,54,12.20
2019,07,08,06,55,12.20
2019,07,08,06,56,12.20
2019,07,08,06,57,12.20
2019,07,08,06,58,12.20
2019,07,08,06,59,12.20
2019,07,08,07,00,12.30
2019,07,08,07,01,12.30
2019,07,08,07,02,12.30
2019,07,08,07,03,12.30
2019,07,08,07,04,12.30
2019,07,08,07,05,12.30
2019,07,08,07,06,12.30
2019,07,08,07,07,12.30
2019,07,08,07,08,12.30
2019,07,08,07,09,12.30
2019,07,08,07,10,12.30
2019,07,08,07,11,12.30
2019,07,08,07,12,12.30
2019,07,08,07,13,12.30
2019,07,08,07,14,12.20
2019,07,08,07,15,12.20
2019,07,08,07,16,12.20
2019,07,08,07,17,12.20
2019,07,08,07,18,12.20
2019,07,08,07,19,12.20
2019,07,08,07,20,12.30
2019,07,08,07,21,12.30
2019,07,08,07,22,12.30
2019,07,08,07,23,12.30
2019,07,08,07,24,12.30
2019,07,08,07,25,12.30
2019,07,08,07,26,12.30
2019,07,08,07,27,12.30
2019,07,08,07,28,12.30
2019,07,08,07,29,12.40
2019,07,08,07,30,12.40
2019,07,08,07,31,12.50
2019,07,08,07,32,12.50
2019,07,08,07,33,12.50
2019,07,08,07,34,12.50
2019,07,08,07,35,12.50
2019,07,08,07,36,12.60
2019,07,08,07,37,12.60
2019,07,08,07,38,12.60
2019,07,08,07,39,12.70
2019,07,08,07,40,12.70
2019,07,08,07,41,12.70
2019,07,08,07,42,12.70
2019,07,08,07,43,12.70
2019,07,08,07,44,12.80
2019,07,08,07,45,12.80
2019,07,08,07,46,12.80
2019,07,08,07,47,12.90
2019,07,08,07,48,12.90
2019,07,08,07,49,12.90
2019,07,08,07,50,13.00
2019,07,08,07,51,13.00
2019,07,08,07,52,13.00
2019,07,08,07,53,13.00
2019,07,08,07,54,13.00
2019,07,08,07,55,13.00
2019,07,08,07,56,13.10
2019,07,08,07,57,13.10
2019,07,08,07,58,13.10
2019,07,08,07,59,13.10
2019,07,08,08,00,13.10
2019,07,08,08,01,13.20
2019,07,08,08,02,13.20
2019,07,08,08,03,13.20
2019,07,08,08,04,13.20
2019,07,08,08,05,13.20
2019,07,08,08,06,13.30
2019,07,08,08,07,13.30
2019,07,08,08,08,13.40
2019,07,08,08,09,13.40
2019,07,08,08,10,13.50
2019,07,08,08,11,13.50
2019,07,08,08,12,13.50
2019,07,08,08,13,13.50
2019,07,08,08,14,13.50
2019,07,08,08,15,13.50
2019,07,08,08,16,13.50
2019,07,08,08,17,13.50
2019,07,08,08,18,13.60
2019,07,08,08,19,13.60
2019,07,08,08,20,13.60
2019,07,08,08,21,13.60
2019,07,08,08,22,13.70
2019,07,08,08,23,13.70
2019,07,08,08,24,13.70
2019,07,08,08,25,13.80
2019,07,08,08,26,13.80
2019,07,08,08,27,13.90
2019,07,08,08,28,14.00
2019,07,08,08,29,14.00
2019,07,08,08,30,14.10
2019,07,08,08,31,14.20
2019,07,08,08,32,14.20
2019,07,08,08,33,14.30
2019,07,08,08,34,14.40
2019,07,08,08,35,14.50
2019,07,08,08,36,14.60
2019,07,08,08,37,14.60
2019,07,08,08,38,14.70
2019,07,08,08,39,14.80
2019,07,08,08,40,14.70
2019,07,08,08,41,14.70
2019,07,08,08,42,14.70
2019,07,08,08,43,14.70
2019,07,08,08,44,14.70
2019,07,08,08,45,14.80
2019,07,08,08,46,14.80
2019,07,08,08,47,14.80
2019,07,08,08,48,15.00
2019,07,08,08,49,15.00
2019,07,08,08,50,15.10
2019,07,08,08,51,15.20
2019,07,08,08,52,15.20
2019,07,08,08,53,15.30
2019,07,08,08,54,15.30
2019,07,08,08,55,15.30
2019,07,08,08,56,15.30
2019,07,08,08,57,15.40
2019,07,08,08,58,15.50
2019,07,08,08,59,15.60
2019,07,08,09,00,15.70
2019,07,08,09,01,15.70
2019,07,08,09,02,15.70
2019,07,08,09,03,15.70
2019,07,08,09,04,15.70
2019,07,08,09,05,15.70
2019,07,08,09,06,15.70
2019,07,08,09,07,15.70
2019,07,08,09,08,15.70
2019,07,08,09,09,15.60
2019,07,08,09,10,15.50
2019,07,08,09,11,15.50
2019,07,08,09,12,15.40
2019,07,08,09,13,15.30
2019,07,08,09,14,15.20
2019,07,08,09,15,15.20
2019,07,08,09,16,15.20
2019,07,08,09,17,15.20
2019,07,08,09,18,15.20
2019,07,08,09,19,15.20
2019,07,08,09,20,15.30
2019,07,08,09,21,15.30
2019,07,08,09,22,15.30
2019,07,08,09,23,15.40
2019,07,08,09,24,15.40
2019,07,08,09,25,15.50
2019,07,08,09,26,15.50
2019,07,08,09,27,15.50
2019,07,08,09,28,15.50
2019,07,08,09,29,15.60
2019,07,08,09,30,15.60
2019,07,08,09,31,15.60
2019,07,08,09,32,15.60
2019,07,08,09,33,15.60
2019,07,08,09,34,15.60
2019,07,08,09,35,15.70
2019,07,08,09,36,15.70
2019,07,08,09,37,15.70
2019,07,08,09,38,15.70
2019,07,08,09,39,15.80
2019,07,08,09,40,15.80
2019,07,08,09,41,15.90
2019,07,08,09,42,16.00
2019,07,08,09,43,16.10
2019,07,08,09,44,16.10
2019,07,08,09,45,16.10
2019,07,08,09,46,16.10
2019,07,08,09,47,16.10
2019,07,08,09,48,16.10
2019,07,08,09,49,16.10
2019,07,08,09,50,16.30
2019,07,08,09,51,16.30
2019,07,08,09,52,16.40
2019,07,08,09,53,16.40
2019,07,08,09,54,16.40
2019,07,08,09,55,16.40
2019,07,08,09,56,16.40
2019,07,08,09,57,16.40
2019,07,08,09,58,16.50
2019,07,08,09,59,16.60
2019,07,08,10,00,16.60
2019,07,08,10,01,16.60
2019,07,08,10,02,16.60
2019,07,08,10,03,16.70
2019,07,08,10,04,16.70
2019,07,08,10,05,16.70
2019,07,08,10,06,16.80
2019,07,08,10,07,16.80
2019,07,08,10,08,16.80
2019,07,08,10,09,16.90
2019,07,08,10,10,17.00
2019,07,08,10,11,17.20
2019,07,08,10,12,17.30
2019,07,08,10,13,17.30
2019,07,08,10,14,17.50
2019,07,08,10,15,17.50
2019,07,08,10,16,17.60
2019,07,08,10,17,17.60
2019,07,08,10,18,17.70
2019,07,08,10,19,17.70
2019,07,08,10,20,17.80
2019,07,08,10,21,17.90
2019,07,08,10,22,17.90
2019,07,08,10,23,17.90
2019,07,08,10,24,18.00
2019,07,08,10,25,18.00
2019,07,08,10,26,18.10
2019,07,08,10,27,18.20
2019,07,08,10,28,18.20
2019,07,08,10,29,18.20
2019,07,08,10,30,18.30
2019,07,08,10,31,18.30
2019,07,08,10,32,18.30
2019,07,08,10,33,18.20
2019,07,08,10,34,18.10
2019,07,08,10,35,17.90
2019,07,08,10,36,17.90
2019,07,08,10,37,18.00
2019,07,08,10,38,18.10
2019,07,08,10,39,18.20
2019,07,08,10,40,18.20
2019,07,08,10,41,18.20
2019,07,08,10,42,18.20
2019,07,08,10,43,18.10
2019,07,08,10,44,17.90
2019,07,08,10,45,17.90
2019,07,08,10,46,17.90
2019,07,08,10,47,18.00
2019,07,08,10,48,18.10
2019,07,08,10,49,18.30
2019,07,08,10,50,18.30
2019,07,08,10,51,18.20
2019,07,08,10,52,18.10
2019,07,08,10,53,18.00
2019,07,08,10,54,17.80
2019,07,08,10,55,17.70
2019,07,08,10,56,17.40
2019,07,08,10,57,17.20
2019,07,08,10,58,17.00
2019,07,08,10,59,16.70
2019,07,08,11,00,16.60
2019,07,08,11,01,16.50
2019,07,08,11,02,16.30
2019,07,08,11,03,16.30
2019,07,08,11,04,16.30
2019,07,08,11,05,16.30
2019,07,08,11,06,16.20
2019,07,08,11,07,16.30
2019,07,08,11,08,16.30
2019,07,08,11,09,16.30
2019,07,08,11,10,16.40
2019,07,08,11,11,16.40
2019,07,08,11,12,16.40
2019,07,08,11,13,16.40
2019,07,08,11,14,16.30
2019,07,08,11,15,16.20
2019,07,08,11,16,16.10
2019,07,08,11,17,16.00
2019,07,08,11,18,15.90
2019,07,08,11,19,15.80
2019,07,08,11,20,15.80
2019,07,08,11,21,15.90
2019,07,08,11,22,16.00
2019,07,08,11,23,16.10
2019,07,08,11,24,16.30
2019,07,08,11,25,16.40
2019,07,08,11,26,16.40
2019,07,08,11,27,16.40
2019,07,08,11,28,16.40
2019,07,08,11,29,16.40
2019,07,08,11,30,16.40
2019,07,08,11,31,16.30
2019,07,08,11,32,16.20
2019,07,08,11,33,16.20
2019,07,08,11,34,16.30
2019,07,08,11,35,16.30
2019,07,08,11,36,16.40
2019,07,08,11,37,16.50
2019,07,08,11,38,16.60
2019,07,08,11,39,16.70
2019,07,08,11,40,16.50
2019,07,08,11,41,16.40
2019,07,08,11,42,16.30
2019,07,08,11,43,16.30
2019,07,08,11,44,16.30
2019,07,08,11,45,16.30
2019,07,08,11,46,16.20
2019,07,08,11,47,16.20
2019,07,08,11,48,16.20
2019,07,08,11,49,16.30
2019,07,08,11,50,16.40
2019,07,08,11,51,16.50
2019,07,08,11,52,16.60
2019,07,08,11,53,16.70
2019,07,08,11,54,16.70
2019,07,08,11,55,16.80
2019,07,08,11,56,16.90
2019,07,08,11,57,17.00
2019,07,08,11,58,17.00
2019,07,08,11,59,16.90
2019,07,08,12,00,16.90
2019,07,08,12,01,16.80
2019,07,08,12,02,16.80
2019,07,08,12,03,16.80
2019,07,08,12,04,16.70
2019,07,08,12,05,16.60
2019,07,08,12,06,16.60
2019,07,08,12,07,16.60
2019,07,08,12,08,16.60
2019,07,08,12,09,16.60
2019,07,08,12,10,16.70
2019,07,08,12,11,16.60
2019,07,08,12,12,16.50
2019,07,08,12,13,16.50
2019,07,08,12,14,16.50
2019,07,08,12,15,16.40
2019,07,08,12,16,16.50
2019,07,08,12,17,16.70
2019,07,08,12,18,16.70
2019,07,08,12,19,16.80
2019,07,08,12,20,16.90
2019,07,08,12,21,17.00
2019,07,08,12,22,17.00
2019,07,08,12,23,17.00
2019,07,08,12,24,17.00
2019,07,08,12,25,17.10
2019,07,08,12,26,17.00
2019,07,08,12,27,16.90
2019,07,08,12,28,17.00
2019,07,08,12,29,17.00
2019,07,08,12,30,16.90
2019,07,08,12,31,16.80
2019,07,08,12,32,16.80
2019,07,08,12,33,16.80
2019,07,08,12,34,16.90
2019,07,08,12,35,16.90
2019,07,08,12,36,16.80
2019,07,08,12,37,16.80
2019,07,08,12,38,16.90
2019,07,08,12,39,17.00
2019,07,08,12,40,17.00
2019,07,08,12,41,17.20
2019,07,08,12,42,17.20
2019,07,08,12,43,17.30
2019,07,08,12,44,17.50
2019,07,08,12,45,17.70
2019,07,08,12,46,17.80
2019,07,08,12,47,17.80
2019,07,08,12,48,17.70
2019,07,08,12,49,17.70
2019,07,08,12,50,17.70
2019,07,08,12,51,17.70
2019,07,08,12,52,17.80
2019,07,08,12,53,17.80
2019,07,08,12,54,17.90
2019,07,08,12,55,17.80
2019,07,08,12,56,17.90
2019,07,08,12,57,17.90
2019,07,08,12,58,17.80
2019,07,08,12,59,17.80
2019,07,08,13,00,17.80
2019,07,08,13,01,17.80
2019,07,08,13,02,17.80
2019,07,08,13,03,17.70
2019,07,08,13,04,17.60
2019,07,08,13,05,17.50
2019,07,08,13,06,17.50
2019,07,08,13,07,17.50
2019,07,08,13,08,17.50
2019,07,08,13,09,17.50
2019,07,08,13,10,17.50
2019,07,08,13,11,17.50
2019,07,08,13,12,17.50
2019,07,08,13,13,17.60
2019,07,08,13,14,17.80
2019,07,08,13,15,17.80
2019,07,08,13,16,17.90
2019,07,08,13,17,17.90
2019,07,08,13,18,18.00
2019,07,08,13,19,18.10
2019,07,08,13,20,18.20
2019,07,08,13,21,18.20
2019,07,08,13,22,18.20
2019,07,08,13,23,18.10
2019,07,08,13,24,17.90
2019,07,08,13,25,17.90
2019,07,08,13,26,17.90
2019,07,08,13,27,17.90
2019,07,08,13,28,17.90
2019,07,08,13,29,17.90
2019,07,08,13,30,17.90
2019,07,08,13,31,17.90
2019,07,08,13,32,18.00
2019,07,08,13,33,18.10
2019,07,08,13,34,18.10
2019,07,08,13,35,18.20
2019,07,08,13,36,18.20
2019,07,08,13,37,18.20
2019,07,08,13,38,18.10
2019,07,08,13,39,17.90
2019,07,08,13,40,17.90
2019,07,08,13,41,18.10
2019,07,08,13,42,18.20
2019,07,08,13,43,18.10
2019,07,08,13,44,18.10
2019,07,08,13,45,18.20
2019,07,08,13,46,18.30
2019,07,08,13,47,18.30
2019,07,08,13,48,18.30
2019,07,08,13,49,18.20
2019,07,08,13,50,18.20
2019,07,08,13,51,18.20
2019,07,08,13,52,18.20
2019,07,08,13,53,18.10
2019,07,08,13,54,18.20
2019,07,08,13,55,18.40
2019,07,08,13,56,18.60
2019,07,08,13,57,18.70
2019,07,08,13,58,18.70
2019,07,08,13,59,18.80
2019,07,08,14,00,18.80
2019,07,08,14,01,18.70
2019,07,08,14,02,18.60
2019,07,08,14,03,18.70
2019,07,08,14,04,18.80
2019,07,08,14,05,18.90
2019,07,08,14,06,18.90
2019,07,08,14,07,18.90
2019,07,08,14,08,18.80
2019,07,08,14,09,18.70
2019,07,08,14,10,18.70
2019,07,08,14,11,18.70
2019,07,08,14,12,18.80
2019,07,08,14,13,18.70
2019,07,08,14,14,18.60
2019,07,08,14,15,18.70
2019,07,08,14,16,18.60
2019,07,08,14,17,18.60
2019,07,08,14,18,18.60
2019,07,08,14,19,18.50
2019,07,08,14,20,18.50
2019,07,08,14,21,18.60
2019,07,08,14,22,18.80
2019,07,08,14,23,18.90
2019,07,08,14,24,18.90
2019,07,08,14,25,18.90
2019,07,08,14,26,18.80
2019,07,08,14,27,18.80
2019,07,08,14,28,18.90
2019,07,08,14,29,18.90
2019,07,08,14,30,18.90
2019,07,08,14,31,18.90
2019,07,08,14,32,19.00
2019,07,08,14,33,19.10
2019,07,08,14,34,19.00
2019,07,08,14,35,18.90
2019,07,08,14,36,18.90
2019,07,08,14,37,18.90
2019,07,08,14,38,19.00
2019,07,08,14,39,19.10
2019,07,08,14,40,19.10
2019,07,08,14,41,19.20
2019,07,08,14,42,19.40
2019,07,08,14,43,19.40
2019,07,08,14,44,19.40
2019,07,08,14,45,19.20
2019,07,08,14,46,19.10
2019,07,08,14,47,19.10
2019,07,08,14,48,19.10
2019,07,08,14,49,19.10
2019,07,08,14,50,19.10
2019,07,08,14,51,19.00
2019,07,08,14,52,18.90
2019,07,08,14,53,18.90
2019,07,08,14,54,18.90
2019,07,08,14,55,18.90
2019,07,08,14,56,18.90
2019,07,08,14,57,18.80
2019,07,08,14,58,18.80
2019,07,08,14,59,18.80
2019,07,08,15,00,18.90
2019,07,08,15,01,18.90
2019,07,08,15,02,18.90
2019,07,08,15,03,18.90
2019,07,08,15,04,18.90
2019,07,08,15,05,19.00
2019,07,08,15,06,19.10
2019,07,08,15,07,19.00
2019,07,08,15,08,18.90
2019,07,08,15,09,18.90
2019,07,08,15,10,18.80
2019,07,08,15,11,18.80
2019,07,08,15,12,18.90
2019,07,08,15,13,18.90
2019,07,08,15,14,18.90
2019,07,08,15,15,18.90
2019,07,08,15,16,18.80
2019,07,08,15,17,18.80
2019,07,08,15,18,19.00
2019,07,08,15,19,19.20
2019,07,08,15,20,19.30
2019,07,08,15,21,19.30
2019,07,08,15,22,19.10
2019,07,08,15,23,19.10
2019,07,08,15,24,19.00
2019,07,08,15,25,18.90
2019,07,08,15,26,18.90
2019,07,08,15,27,18.80
2019,07,08,15,28,18.80
2019,07,08,15,29,18.70
2019,07,08,15,30,18.70
2019,07,08,15,31,18.90
2019,07,08,15,32,19.00
2019,07,08,15,33,19.10
2019,07,08,15,34,19.20
2019,07,08,15,35,19.40
2019,07,08,15,36,19.40
2019,07,08,15,37,19.40
2019,07,08,15,38,19.40
2019,07,08,15,39,19.40
2019,07,08,15,40,19.40
2019,07,08,15,41,19.30
2019,07,08,15,42,19.20
2019,07,08,15,43,19.00
2019,07,08,15,44,18.90
2019,07,08,15,45,18.90
2019,07,08,15,46,18.90
2019,07,08,15,47,19.10
2019,07,08,15,48,19.10
2019,07,08,15,49,19.20
2019,07,08,15,50,19.20
2019,07,08,15,51,19.20
2019,07,08,15,52,19.20
2019,07,08,15,53,19.10
2019,07,08,15,54,19.10
2019,07,08,15,55,19.30
2019,07,08,15,56,19.40
2019,07,08,15,57,19.60
2019,07,08,15,58,19.70
2019,07,08,15,59,19.90
2019,07,08,16,00,19.70
2019,07,08,16,01,19.60
2019,07,08,16,02,19.60
2019,07,08,16,03,19.60
2019,07,08,16,04,19.70
2019,07,08,16,05,19.70
2019,07,08,16,06,19.70
2019,07,08,16,07,19.70
2019,07,08,16,08,19.70
2019,07,08,16,09,19.80
2019,07,08,16,10,19.80
2019,07,08,16,11,19.60
2019,07,08,16,12,19.50
2019,07,08,16,13,19.50
2019,07,08,16,14,19.50
2019,07,08,16,15,19.50
2019,07,08,16,16,19.50
2019,07,08,16,17,19.60
2019,07,08,16,18,19.60
2019,07,08,16,19,19.50
2019,07,08,16,20,19.50
2019,07,08,16,21,19.30
2019,07,08,16,22,19.30
2019,07,08,16,23,19.30
2019,07,08,16,24,19.30
2019,07,08,16,25,19.20
2019,07,08,16,26,19.30
2019,07,08,16,27,19.30
2019,07,08,16,28,19.30
2019,07,08,16,29,19.30
2019,07,08,16,30,19.50
2019,07,08,16,31,19.60
2019,07,08,16,32,19.60
2019,07,08,16,33,19.60
2019,07,08,16,34,19.60
2019,07,08,16,35,19.70
2019,07,08,16,36,19.70
2019,07,08,16,37,19.70
2019,07,08,16,38,19.70
2019,07,08,16,39,19.60
2019,07,08,16,40,19.60
2019,07,08,16,41,19.50
2019,07,08,16,42,19.50
2019,07,08,16,43,19.60
2019,07,08,16,44,19.80
2019,07,08,16,45,19.80
2019,07,08,16,46,19.90
2019,07,08,16,47,19.80
2019,07,08,16,48,19.80
2019,07,08,16,49,19.70
2019,07,08,16,50,19.60
2019,07,08,16,51,19.60
2019,07,08,16,52,19.50
2019,07,08,16,53,19.50
2019,07,08,16,54,19.50
2019,07,08,16,55,19.60
2019,07,08,16,56,19.60
2019,07,08,16,57,19.60
2019,07,08,16,58,19.70
2019,07,08,16,59,19.80
2019,07,08,17,00,19.90
2019,07,08,17,01,19.90
2019,07,08,17,02,19.90
2019,07,08,17,03,19.90
2019,07,08,17,04,19.80
2019,07,08,17,05,19.80
2019,07,08,17,06,19.80
2019,07,08,17,07,19.80
2019,07,08,17,08,19.80
2019,07,08,17,09,19.90
2019,07,08,17,10,19.90
2019,07,08,17,11,19.90
2019,07,08,17,12,19.80
2019,07,08,17,13,19.90
2019,07,08,17,14,19.90
2019,07,08,17,15,19.90
2019,07,08,17,16,19.80
2019,07,08,17,17,19.70
2019,07,08,17,18,19.60
2019,07,08,17,19,19.40